Location: Newark
(51.0000°N, 11.4100°E)
Time: 00:56:28
(UTC+00:00)

N. Korean satellite - Pass Details

Date: 22 October 2019
Orbit: 456 x 506 km, 97.2° (Epoch: 17 November)

Event Time Altitude Azimuth Distance (km) Brightness Sun altitude
Rises 03:55:21 0° 33° (NNE) 2,564 10.8 -18.5°
Reaches altitude 10° 03:58:59 10° 72° (ENE) 1,690 10.5 -17.9°
Maximum altitude 03:59:57 11° 87° (E) 1,638 10.5 -17.7°
Drops below altitude 10° 04:00:56 10° 103° (ESE) 1,693 10.4 -17.6°
Sets 04:04:34 0° 142° (SE) 2,580 10.8 -17.0°
